www.pogodaiklimat.ru

ПОГОДА в Кини, NH

  • Прогноз погоды в Кини
  • Монитор погоды в Кини
  • Климат в Кини

АРХИВ ПОГОДЫ в Кини

Время (UTC), дата Ветер
(напр.,м/с)
 
Видим.   Явления Облачность Т
(С)
Тd
(С)
f
(%)
Тe
(С)
Тes
(С)
Комфортность

P
(гПа)

Po
(гПа)
Тmin
(С)
Tmax
(С)
R
(мм)
SD
(см)
18:56 22.03 СЗ  4
{8} 
16 км  слабый дождь  10/10 420 м  +3.3  +1.7  89  -2  -2    989.2  969.7         
19:13 22.03 СЗ  16 км  слабый дождь  10/10 480 м  +3.0  +1.0  87  -3  -3      969.7         
19:56 22.03 СЗ  16 км  слабый дождь  10/10 450 м  +2.8  +1.1  89  -1  -1    989.3  970.0      0.3   
20:39 22.03 СЗ  4
{7} 
14 км  слабый снег  10/10 570 м  +3.0  0.0  81  -2  -2      970.0         
20:56 22.03 СЗ  16 км    10/10 780 м  +3.3  -0.6  76  -2  -2    989.6  970.4         
21:56 22.03 СЗ  4
{8} 
16 км    10/10 840 м  +2.8  -1.1  75  -2  -2    990.3  971.0         
22:25 22.03 СЗ  4
{8} 
16 км    10/10 900 м  +3.0  -1.0  75  -2  -2      971.4         
22:56 22.03 СЗ  4
{9} 
16 км  слабый дождь  10/10 960 м  +2.8  -1.1  75  -2  -2    991.0  971.7  +2.8  +3.3  0.3   
23:56 22.03 З  16 км  слабый дождь  10/10 930 м  +2.2  -0.6  82  -2  -2    991.2  971.7         
00:41 23.03 З  16 км  слабый дождь  10/10 840 м  +3.0  -1.0  75  -1  -1      972.0         
00:56 23.03 СЗ  16 км  слабый дождь  10/10 780 м  +2.8  -0.6  78  -1  -1    991.6  972.4         
01:56 23.03 СЗ  16 км  слабый дождь  10/10 660 м  +2.8  0.0  82  -2  -2    991.8  972.4      0.3   
02:56 23.03 СЗ  4
{9} 
5 км  слабый снег, дымка  10/10 600 м  +1.1  -1.1  85  -4  -4    992.4  973.0         
03:13 23.03 нст  2
{8} 
4 км  слабый снег, дымка  10/10 600 м  +1.0  -1.0  86  -3  -3      973.0         
03:25 23.03 СЗ  3 км  слабый снег, дымка  10/10 450 м  +1.0  -1.0  86  -4  -4      973.0         
03:53 23.03   5 км  слабый снег, дымка  10/10 540 м  +1.0  -1.0  86  -0  -0      973.4         
03:56 23.03   5 км  слабый снег, дымка  10/10 540 м  +0.6  -0.6  92  -1  -1    992.9  973.4         
04:18 23.03 З  4 км  слабый снег, дымка  10/10 600 м  +1.0  -1.0  86  -4  -4      973.7         
04:56 23.03   3 км  слабый снег, дымка  10/10 660 м  0.0  -1.7  88  -1  -1    993.6  974.0  0.0  +2.8  0.3   
05:11 23.03 нст  3
{9} 
5 км  слабый снег, дымка  10/10 660 м  0.0  -1.0  93  -5  -5      974.4         
05:35 23.03 нст  6 км  слабый снег, дымка  10/10 690 м  0.0  -2.0  86  -5  -5      974.4         
05:56 23.03 СЗ  5
{8} 
8 км  слабый снег  10/10 810 м  0.0  -2.8  81  -7  -7    994.0  974.7         
06:27 23.03 СЗ  4
{7} 
11 км  слабый снег  10/10 870 м  0.0  -3.0  80  -5  -5      974.7         
06:56 23.03 СЗ  4
{9} 
6 км  слабый снег  10/10 540 м  0.0  -3.3  78  -6  -6    995.0  975.7         
07:08 23.03 СЗ  5
{8} 
4 км  слабый снег, дымка  10/10 540 м  -1.0  -3.0  86  -8  -8      975.7         
07:56 23.03 СЗ  6
{10} 
4 км  слабый снег, дымка  10/10 480 м  -1.1  -2.8  88  -8  -8    996.6  977.0      0.5   
08:05 23.03 З  4
{8} 
5 км  слабый снег, дымка  10/10 480 м  -1.0  -3.0  86  -7  -7      977.3         
08:17 23.03 СЗ  5
{8} 
4 км  слабый снег, дымка  10/10 540 м  -1.0  -3.0  86  -8  -8      977.3         
08:27 23.03 СЗ  4
{7} 
5 км  слабый снег, дымка  10/10 600 м  -1.0  -3.0  86  -7  -7      977.7         
08:42 23.03 СЗ  4
{10} 
6 км  слабый снег, дымка  10/8 540 м
[средняя] 
-2.0  -3.0  93  -8  -8      978.0         
08:56 23.03 СЗ  7
{10} 
11 км  слабый снег  10/8 810 м
[средняя] 
-1.1  -3.9  81  -9  -9    998.1  978.3         
09:56 23.03 З  4
{9} 
5 км  слабый снег  10/10 960 м  -1.7  -4.4  82  -8  -8    1000.2  980.3         
10:04 23.03 З  7
{10} 
4 км  слабый снег  10/10 840 м  -2.0  -4.0  86  -10  -10      980.7         
10:11 23.03 З  7
{10} 
4 км  слабый снег  10/10 900 м  -2.0  -4.0  86  -10  -10      981.0         
10:20 23.03 З  4
{9} 
6 км  слабый снег  10/10 960 м  -2.0  -5.0  80  -8  -8      981.3         
10:56 23.03 СЗ  4
{8} 
16 км    10/10 930 м  -1.7  -5.6  75  -8  -8    1002.0  982.3  -1.7  0.0  0.5   
11:56 23.03 СЗ  6
{10} 
16 км    8/8 930 м  -1.1  -6.1  69  -8  -8    1003.4  983.7         
12:56 23.03 З  4
{7} 
16 км    10/10 930 м  -0.6  -6.1  66  -6  -6    1005.3  985.3         
13:56 23.03 З  6
{9} 
16 км    10/10 990 м  +0.6  -6.7  58  -6  -6    1006.0  986.3      0.3   
14:56 23.03 З  4
{9} 
16 км    10/10 1050 м  +0.6  -6.7  58  -5  -5    1007.2  987.3         
15:56 23.03 СЗ  5
{9} 
16 км    10/10 1050 м  +1.1  -6.7  56  -5  -5    1008.5  988.7         
17:56 23.03 СЗ  6
{9} 
16 км    8/8 1230 м  +4.4  -5.0  50  -1  -0    1009.2  989.3         
18:56 23.03 З  5
{12} 
16 км    10/10 1500 м  +5.6  -5.6  44  +1  +1    1010.0  990.3         
19:56 23.03 СЗ  7
{9} 
16 км    ясно  +5.0  -6.7  42  0  +1    1011.0  991.3      0.3   
20:56 23.03 СЗ  6
{10} 
16 км    ясно  +5.0  -8.9  36  0  +1    1012.4  992.7         
21:56 23.03 СЗ  6
{10} 
16 км    ясно  +3.3  -12.2  31  -2  -1    1013.6  993.6         
22:56 23.03   16 км    ясно  +2.2  -11.7  35  +2  +2    1015.1  995.0  +1.7  +5.6  0.3   
23:56 23.03 нст  16 км    ясно  +1.7  -11.1  38  -0  -0    1016.5  996.3         

 

Местоположение метеостанции Dillant-Hopkins Airport: широта 42.9000 долгота -72.2667 высота над уровнем моря 149 м.

В архиве по умолчанию представлена погода в Кини за последние 1-2 суток. Обновление информации о фактической погоде в базе происходит ежечасно! Архивные данные за месяц целиком и за предыдущие месяцы Вы можете получить, выбрав интересующий диапазон дат из раскрывающегося списка и нажав кнопку "Ввод!".

Внимание! Архив погоды МЕТАР в базе сайта хранится не более 60 дней. Нет смысла пытаться выбрать более раннюю дату.

Внимание! Время в таблицах - всемирное. Для получения местного времени необходимо прибавить поправку, которая в Кини равна -5 ч.

Ветер - указаны скорость ветра в м/с и направление, откуда дует ветер: С - северный, СВ - северо-восточный, В - восточный, ЮВ - юго-восточный, Ю - южный, ЮЗ - юго-западный, З - западный, СЗ - северо-западный.
Видимость - горизонтальная дальность видимости в метрах или километрах. При видимости от 1 до 10 км при отсутствии осадков обычно наблюдается дымка, при ухудшении видимости до 1 км и менее - туман. В сухую погоду видимость может ухудшаться дымом, пылью или мглою.
Атмосферные явления - указаны явления, наблюдавшиеся в указанный момент времени.
Облачность - указаны через наклонную черту верхняя и нижняя облачность в баллах и высота нижней границы облаков в метрах. Внимание: облачность, как и прочие метеорологические величины в США измеряются автоматическими метеостанциями. Указанные значения в баллах носят условный характер и показывают процент времени, в течение которого, в среднем, лазерный луч высотомера отражался от облаков обратно.
T - Температура воздуха - температура, измеренная на высоте 2 м над землей.
Td - Температура точки росы - температура, при понижении до которой содержащийся в воздухе водяной пар достигнет насыщения.
f - Относительная влажность воздуха - влажноcть воздуха, измеренная на высоте 2 м над землей.
Te - Эффективная температура - температура, которую ощущает одетый по сезону человек в тени. Характеристика душности погоды. При расчете учитывается влияние влажности воздуха и скорости ветра на теплоощущения человека.
Tes - Эффективная температура на солнце - температура, которую ощущает человек, с поправкой на солнечный нагрев. Характеристика знойности погоды. Зависит от высоты солнца над горизонтом, облачности и скорости ветра. Ночью, в пасмурную погоду, а также при ветре 12 м/с и более поправка равна нулю.
P - Атмосферное давление - приведенное к уровню моря атмосферное давление.
Po - Атмосферное давление - измеренное на уровне метеостанции атмосферное давление.
Tmin - Минимальная температура - минимум температуры воздуха на высоте 2 м над землей.
Tmax - Максимальная температура - максимум температуры воздуха на высоте 2 м над землей.
R - Количество осадков - Количество выпавших осадков за 3 или 6 часов, мм.
SD - Снежный покров - Высота снежного покрова, см.